This is the latest recevied weather packets stored in our database for station/object AG1T-20. If no packets are shown the sender has not sent any weather packets the latest 10 day(s).
| Time | Temp. | Humidity | Pressure | Rain* | Wind** | Luminosity | Snow |
|---|---|---|---|---|---|---|---|
| 1787423405 | 30.56° C | 32% | 1023.9 hPa | 0 mm | - | 855 W/m² | - |
| 1787422805 | 31.67° C | 31% | 1023.9 hPa | 0 mm | - | 857 W/m² | - |
| 1787422204 | 31.11° C | 32% | 1023.9 hPa | 0 mm | - | 859 W/m² | - |
| 1787421605 | 30.56° C | 33% | 1023.9 hPa | 0 mm | - | 859 W/m² | - |
| 1787421005 | 30° C | 35% | 1024.5 hPa | 0 mm | - | 860 W/m² | - |
| 1787420405 | 30.56° C | 34% | 1024.5 hPa | 0 mm | - | 858 W/m² | - |
| 1787419805 | 30° C | 33% | 1024.5 hPa | 0 mm | - | 855 W/m² | - |
| 1787419204 | 29.44° C | 37% | 1024.5 hPa | 0 mm | - | 850 W/m² | - |
| 1787418605 | 28.33° C | 38% | 1024.5 hPa | 0 mm | - | 846 W/m² | - |
| 1787418004 | 28.89° C | 40% | 1024.5 hPa | 0 mm | - | 842 W/m² | - |
| 1787417405 | 28.33° C | 40% | 1024.8 hPa | 0 mm | - | 840 W/m² | - |
| 1787416805 | 27.78° C | 40% | 1024.8 hPa | 0 mm | - | 827 W/m² | - |
| 1787416204 | 27.22° C | 45% | 1024.8 hPa | 0 mm | - | 764 W/m² | - |
| 1787415604 | 26.67° C | 44% | 1024.8 hPa | 0 mm | - | 798 W/m² | - |
| 1787415005 | 26.67° C | 45% | 1024.8 hPa | 0 mm | - | 788 W/m² | - |
| 1787414405 | 26.67° C | 43% | 1024.8 hPa | 0 mm | - | 782 W/m² | - |
| 1787413805 | 25.56° C | 45% | 1024.8 hPa | 0 mm | - | 697 W/m² | - |
| 1787413205 | 25.56° C | 46% | 1024.8 hPa | 0 mm | - | 696 W/m² | - |
| 1787412604 | 25.56° C | 45% | 1024.8 hPa | 0 mm | - | 556 W/m² | - |
| 1787412004 | 24.44° C | 47% | 1024.8 hPa | 0 mm | - | 636 W/m² | - |
| 1787411405 | 23.33° C | 49% | 1024.8 hPa | 0 mm | - | 671 W/m² | - |
| 1787410805 | 23.33° C | 54% | 1024.8 hPa | 0 mm | - | 453 W/m² | - |
| 1787410204 | 23.33° C | 55% | 1024.6 hPa | 0 mm | - | 367 W/m² | - |
| 1787409604 | 22.78° C | 55% | 1024.6 hPa | 0 mm | - | 575 W/m² | - |
| 1787409005 | 21.67° C | 56% | 1024.6 hPa | 0 mm | - | 284 W/m² | - |
* Rain latest hour (hover to see other rain measurements)
** Current wind speed in m/s (hover to see current wind gust speed)